Al Hoceima, Morocco

3:27 PM WEST on September 19, 2017 (GMT +0100)
Al Hoceima

Weather History for GMTA - September, 2013

Change the Weather History Date:

Thursday, September 12, 2013

  Actual Average Record
Temperature  
Mean Temperature 79 °F -  
Max Temperature 86 °F 74 °F 88 °F (2017)
Min Temperature 72 °F 61 °F 33 °F (1999)
Cooling Degree Days 14    
Growing Degree Days 29 (Base 50)    
Moisture  
Dew Point 70 °F    
Average Humidity 73    
Maximum Humidity 83    
Minimum Humidity 65    
Precipitation  
Precipitation 0.00 in - - ()
Sea Level Pressure  
Sea Level Pressure 30.06 in    
Wind  
Wind Speed 7 mph ()    
Max Wind Speed 16 mph    
Max Gust Speed 24 mph    
Visibility 5.5 miles    
Events      
Averages and records for this station are not official NWS values.
T = Trace of Precipitation, MM = Missing Value Source: Averaged Metar Reports

Daily Weather History Graph

Daily Weather History Graph

Search for Another Location

Airport or City:

Trip Planner

Search our weather history database for the weather conditions in past years. The results will help you decide how hot, cold, wet, or windy it might be!

Date:

Astronomy

Sep. 12, 2013 Rise Set
Actual Time 6:56 AM WEST 7:26 PM WEST
Civil Twilight 6:30 AM WEST 7:52 PM WEST
Nautical Twilight 6:00 AM WEST 8:22 PM WEST
Astronomical Twilight 5:29 AM WEST 8:52 PM WEST
Moon 1:55 PM WEST (9/12) No Moon Set
Length of Visible Light 13h 21m
Length of Day
12h 30m
Waxing Crescent, 47% of the Moon is Illuminated
Sep 12
Waxing Crescent
Sep 12
First Quarter
Sep 19
Full
Sep 27
Last Quarter
Oct 5
New

Hourly Weather History & Observations

Time (WEST) Temp. Heat Index Dew Point Humidity Pressure Visibility Wind Dir Wind Speed Gust Speed Precip Events Conditions
1:00 AM 77 °F - 69 °F 71% 30.04 in 5 mi SSW 4.6 mph - -   Mostly Cloudy
1:00 AM 77.0 °F - 69.8 °F 78% 30.04 in 5.0 mi SSW 4.6 mph - N/A   Partly Cloudy
7:00 AM 74 °F - 68 °F 77% 30.06 in 5 mi West 2.3 mph - -   Mostly Cloudy
7:00 AM 73.4 °F - 68.0 °F 83% 30.04 in 5.0 mi West 2.3 mph - N/A   Mostly Cloudy
8:00 AM 73.4 °F - 68.0 °F 83% 30.04 in 5.0 mi West 2.3 mph - N/A   Mostly Cloudy
9:00 AM 77.0 °F - 69.8 °F 78% 30.04 in 5.0 mi East 6.9 mph - N/A   Mostly Cloudy
10:00 AM 79 °F - 70 °F 67% 30.09 in 5 mi ENE 11.5 mph - -   Mostly Cloudy
10:00 AM 78.8 °F - 69.8 °F 74% 30.06 in 5.0 mi ENE 11.5 mph - N/A   Mostly Cloudy
11:00 AM 78.8 °F - 69.8 °F 74% 30.06 in 5.0 mi NE 9.2 mph - N/A   Scattered Clouds
12:00 PM 80.6 °F 84.6 °F 71.6 °F 74% 30.09 in 5.0 mi NE 13.8 mph - N/A   Scattered Clouds
1:00 PM 81 °F - 71 °F 65% 30.09 in 5 mi NE 13.8 mph - -   Mostly Cloudy
1:00 PM 80.6 °F 84.6 °F 71.6 °F 74% 30.06 in 5.0 mi NE 13.8 mph - N/A   Scattered Clouds
2:00 PM 80.6 °F 84.6 °F 71.6 °F 74% 30.06 in 5.0 mi ENE 16.1 mph - N/A   Scattered Clouds
3:00 PM 84.2 °F 89.6 °F 71.6 °F 66% 30.06 in 6.2 mi ENE 13.8 mph - N/A   Partly Cloudy
4:00 PM 84.2 °F 89.6 °F 71.6 °F 66% 30.04 in 6.2 mi ENE 16.1 mph 24.2 mph N/A   Partly Cloudy
5:00 PM 84.2 °F 90.9 °F 73.4 °F 70% 30.04 in 6.2 mi ENE 11.5 mph - N/A   Partly Cloudy
6:00 PM 82.4 °F 87.2 °F 71.6 °F 70% 30.04 in 6.2 mi East 13.8 mph - N/A   Partly Cloudy
7:00 PM 80 °F - 71 °F 66% 30.06 in 6 mi East 9.2 mph - -   Partly Cloudy
7:00 PM 80.6 °F 83.9 °F 69.8 °F 70% 30.04 in 6.2 mi East 9.2 mph - N/A   Scattered Clouds
8:00 PM 78.8 °F - 69.8 °F 74% 30.06 in 6.2 mi East 6.9 mph - N/A   Scattered Clouds
9:00 PM 78.8 °F - 69.8 °F 74% 30.06 in 6.2 mi NNE 2.3 mph - N/A   Scattered Clouds
10:00 PM 78 °F - 69 °F 67% 30.10 in 6 mi ESE 9.2 mph - -   Scattered Clouds
10:00 PM 78.8 °F - 69.8 °F 74% 30.09 in 6.2 mi ESE 9.2 mph - N/A   Partly Cloudy